Regional Weather Roundup
Issued by NWS Mobile, AL

Home | Current Version | Previous Version | Text Only | Print | Product List | Glossary On
Versions: 1 2 3 4 5 6 7 8 9 10 11 12 13 14 15 16 17 18 19 20 21 22 23 24 25 26 27 28 29 30 31 32 33 34 35 36 37 38 39 40 41 42 43 44 45 46 47 48 49 50
000
ASUS44 KMOB 030716
RWRMOB
REGIONAL WEATHER ROUNDUP
NATIONAL WEATHER SERVICE MOBILE AL
200 AM CDT FRI JUL 03 2015

ALZ061>064-030800-
COASTAL ALABAMA


CITY           SKY/WX    TMP DP  RH WIND       PRES   REMARKS
MOBILE REG APT CLOUDY    78  77  96 SW8       30.06S
BROOKLEY FIELD MOCLDY    78  75  90 S3        30.06S
GULF SHORES    PTSUNNY   80  76  88 SW5       30.05F

$$

ALZ051>060-030800-
INTERIOR SOUTHWEST AND SOUTH CENTRAL ALABAMA


CITY           SKY/WX    TMP DP  RH WIND       PRES   REMARKS
ANDALUSIA/OPP  CLOUDY    80  71  74 W6        30.05R
EVERGREEN      CLOUDY    77  73  87 S5        30.05S
FLORALA        CLOUDY    75  72  90 SW6       30.07S
GREENVILLE     FAIR      78  73  84 SW6       30.02F

$$

FLZ001>006-030800-
WESTERN FLORIDA PANHANDLE


CITY           SKY/WX    TMP DP  RH WIND       PRES   REMARKS
CRESTVIEW      CLOUDY    78  73  84 SW7       30.07S
DESTIN         CLOUDY    83  74  74 SW5       30.05F HAZE
DUKE FIELD     FAIR      78  72  82 SW7       30.05S
MARY ESTHER    CLOUDY    81  73  75 SW7       30.04F
MILTON         CLOUDY    80  72  76 SW6       30.05F
PENSACOLA      CLOUDY    80  72  76 SW7       30.05S
NAS PENSACOLA  CLOUDY    80  73  79 SW6       30.05S
VALPARAISO     NOT AVBL

$$

...MARINE OBSERVATIONS...

STATION/POSITION TIME  SKY/WX   TEMP    WIND        PRES    VSBY
                                AIR SEA DIR/SP/G
                 (UTC)          (F)     (DEG/KT/KT) (MB)    (MI)
PASCAGOULA       0600            82     220/  8/ 13 1017.5R
PETIT BOIS ISL   0600            83     220/ 13/ 15 1018.1R
E DAUPHIN ISLAND 0700            83     220/  9/ 11 1017.4S
MIDDLE BAY LIGHT 0600            81     220/ 16     1017.3R
USCG MOBILE BAY  0600            79 83  240/  4/  5 1016.6R
STATE DOCKS      0600            80 86              1017.4R
MEAHER PARK      0700            82     220/  9     1016.9S
FORT MORGAN      0600            83     230/ 14/ 15 1017.2R
12 S ORANGE BCH  0650            83 82  210/ 10/ 12 1017.1S
WVE H/P(F/S)=  1/ 3

PENSACOLA BAY    0600            83 85  220/  7/  9 1017.9R
64 S DAUPHIN ISL 0650            83 84  190/ 14/ 16 1018.3S
WVE H/P(F/S)=  1/ 3

67 S FORT MORGAN 0630            82     190/ 12     1018.3S
115 SE PENSACOLA 0650            83 84  180/  8/ 10 1018.2F
WVE H/P(F/S)=  2/ 5

MID GULF/42001   0650            84 85  150/ 16/ 17 1016.8F
WVE H/P(F/S)=  3/ 4

EAST GULF/42003  0650            84 85  120/ 12/ 14 1017.4F
WVE H/P(F/S)=  3/ 7


$$

...NEARBY LOCATIONS

CITY           SKY/WX    TMP DP  RH WIND       PRES   REMARKS
GULFPORT       CLOUDY    82  75  79 SW3       30.04S
BILOXI         CLOUDY    81  77  87 SW9       30.04S
PASCAGOULA     MOCLDY    80  77  90 VRB3      30.05S
HATTIESBURG    CLOUDY    78  74  87 SW6       30.04F
LAUREL         CLOUDY    77 N/A N/A SW5       30.05F
MERIDIAN       CLOUDY    77  73  87 SW9       29.99F
MERIDIAN NAS   CLOUDY    79  73  82 SW8       29.98F
MONTGOMERY     CLOUDY    80  74  81 SW6       30.00F
MAXWELL AFB    NOT AVBL
TROY           MOCLDY    77  74  90 SW6       30.04S
FORT RUCKER    CLOUDY    76  73  91 SW5       30.03S
DALEVILLE      CLOUDY    75  73  95 SW6       30.04F
DOTHAN         CLOUDY    76  72  87 SW8       30.08S

$$

...OTHER SURROUNDING LOCATIONS...

CITY           SKY/WX    TMP DP  RH WIND       PRES   REMARKS
BIRMINGHAM     MOCLDY    79  73  82 SW10      29.98F
TUSCALOOSA     PTCLDY    78  73  84 SW7       29.96F
COLUMBUS GA    CLOUDY    76  73  91 SW7       30.00F
PANAMA CITY    NOT AVBL
TALLAHASSEE    MOCLDY    76  73  91 CALM      30.06S
BATON ROUGE    CLOUDY    79  75  87 S5        30.04S
NEW ORLEANS    CLOUDY    80  74  81 S6        30.04S
SLIDELL        CLOUDY    81  77  88 CALM      30.04S
JACKSON        MOCLDY    78  73  84 SW10      30.00F
MCCOMB         FOG       75  74  96 S3        30.05S VSB 1/2

$$

...SURROUNDING MARINE OBSERVATIONS...

STATION/POSITION TIME  SKY/WX   TEMP    WIND        PRES    VSBY
                                AIR SEA DIR/SP/G
                 (UTC)          (F)     (DEG/KT/KT) (MB)    (MI)
WAVELAND         0600            82 83  220/  6/  8 1017.7R
PASCAGOULA RGN A 0600            82     230/ 12/ 15 1017.1R
PASCAGOULA PORT  0600               85                N/A
GRAND ISLE       0600            83 86  200/  6/ 10 1017.8R
SOUTHWEST PASS   0700            83     190/ 10/ 11 1018.2R
PILOT STATION E  0600            83 82  180/ 11/ 12 1018.2R
SHELL BEACH      0600            80 83  190/  6/  6 1017.0S
PANAMA CITY      0600            82 84  200/  9/ 10 1017.3F
APALACHICOLA     0600            81 84  220/  6/ 10 1018.0F
TYNDALL TOWER C  0700            82     210/ 11/ 11 1017.9S
S APLCHCLA/42036 0650            85 85  180/ 10/ 10 1018.0F
WVE H/P(F/S)=  2/ 6


$$




USA.gov is the U.S. government's official web portal to all federal, state and local government web resources and services.